sat.trackr.live / text

‹ back to catalog

STARLINK-2706

NORAD 48481 · 2021-040BF

PAYLOAD ACTIVE UNKNOWN

§ Identity

Operator
Country
US
Launch date
2021-05-09
Launch site
AFETR
Launch vehicle
Mass (kg)
RCS (m²)

Purposes: comms

External: N2YO · Heavens-Above · Gunter

§ Orbital elements

Epoch: 2026-05-25T04:09:03.763872Z

Period
94.01 min
Inclination
53.1570°
Eccentricity
0.0001404
Mean motion
15.31704118 rev/d
Perigee alt
469.8 km
Apogee alt
471.7 km
Semi-major
6,848.9 km
B*
6.0320e-5
RAAN
197.7658°
Arg perigee
78.5112°
Mean anomaly
281.6047°
Rev number
27,818

§ Raw data

STARLINK-27061 48481U 21040BF  26145.17296023  .00001507  00000+0  60320-4 0  99972 48481  53.1570 197.7658 0001404  78.5112 281.6047 15.31704118278189

JSON: /api/v1/satellites/48481 · /tle

For live sub-satellite position, see the globe view (requires WebGL).

§ Visibility from observer

Set your observer location to see the next 7 days of passes ≥ 10°. The values pass through the URL so the page stays shareable.

No JS? Fill the form by hand. The geolocation button needs JavaScript.